Raleigh-Durham Airport, NC

9:35 PM EDT on April 30, 2017 (GMT -0400)
Raleigh-Durham International

Weather History for KRDU - July, 2013

Change the Weather History Date:

Saturday, July 20, 2013

  Actual Average Record
Temperature  
Mean Temperature 82 °F 80 °F  
Max Temperature 90 °F 90 °F 102 °F (1942)
Min Temperature 74 °F 70 °F 60 °F (1910)
Degree Days  
Heating Degree Days 0 0  
Month to date heating degree days 0 0  
Since 1 June heating degree days 0 4  
Since 1 July heating degree days 0 0  
Cooling Degree Days 17 15  
Month to date cooling degree days 296 300  
Year to date cooling degree days 805 856  
Since 1 June cooling degree days 627 647  
Growing Degree Days 30 (Base 50)    
Moisture  
Dew Point 72 °F    
Average Humidity 73    
Maximum Humidity 87    
Minimum Humidity 59    
Precipitation  
Precipitation 0.00 in 0.16 in 2.42 in (1939)
Month to date precipitation 1.85 2.98  
Year to date precipitation 30.96 23.53  
Sea Level Pressure  
Sea Level Pressure 30.00 in    
Wind  
Wind Speed 11 mph (SW)    
Max Wind Speed 18 mph    
Max Gust Speed 23 mph    
Visibility 10 miles    
Events      
T = Trace of Precipitation, MM = Missing Value Source: NWS Daily Summary

Daily Weather History Graph

Daily Weather History Graph

Search for Another Location

Airport or City:

Trip Planner

Search our weather history database for the weather conditions in past years. The results will help you decide how hot, cold, wet, or windy it might be!

Date:

Astronomy

Jul. 20, 2013 Rise Set
Actual Time 6:13 AM EDT 8:28 PM EDT
Civil Twilight 5:44 AM EDT 8:57 PM EDT
Nautical Twilight 5:09 AM EDT 9:33 PM EDT
Astronomical Twilight 4:30 AM EDT 10:11 PM EDT
Moon 6:30 PM EDT (7/20) 3:51 AM EDT (7/20)
Length of Visible Light 15h 12m
Length of Day
14h 14m
Waxing Gibbous, 93% of the Moon is Illuminated
Jul 20
Waxing Gibbous
Jul 22
Full
Jul 29
Last Quarter
Aug 6
New
Aug 14
First Quarter

Hourly Weather History & Observations

Time (EDT) Temp. Heat Index Dew Point Humidity Pressure Visibility Wind Dir Wind Speed Gust Speed Precip Events Conditions
12:51 AM 78.1 °F - 71.1 °F 79% 30.02 in 10.0 mi SSW 9.2 mph - N/A   Partly Cloudy
1:51 AM 77.0 °F - 72.0 °F 84% 30.01 in 10.0 mi SW 10.4 mph - N/A   Partly Cloudy
2:51 AM 75.9 °F - 72.0 °F 87% 30.01 in 10.0 mi SW 10.4 mph - N/A   Mostly Cloudy
3:51 AM 75.0 °F - 71.1 °F 87% 30.01 in 10.0 mi SW 10.4 mph - N/A   Mostly Cloudy
4:51 AM 75.0 °F - 71.1 °F 87% 30.01 in 10.0 mi SW 10.4 mph - N/A   Mostly Cloudy
5:51 AM 75.0 °F - 71.1 °F 87% 30.01 in 10.0 mi SW 12.7 mph - N/A   Mostly Cloudy
6:51 AM 75.0 °F - 71.1 °F 87% 30.01 in 10.0 mi SW 9.2 mph - N/A   Mostly Cloudy
7:51 AM 75.9 °F - 71.1 °F 85% 30.03 in 10.0 mi WSW 6.9 mph - N/A   Mostly Cloudy
8:51 AM 77.0 °F - 71.1 °F 82% 30.04 in 10.0 mi SW 11.5 mph - N/A   Overcast
9:51 AM 79.0 °F - 72.0 °F 79% 30.02 in 10.0 mi SW 10.4 mph - N/A   Mostly Cloudy
10:29 AM 80.6 °F 85.4 °F 73.4 °F 79% 30.04 in 10.0 mi WSW 10.4 mph - N/A   Mostly Cloudy
10:51 AM 81.0 °F 85.2 °F 72.0 °F 74% 30.03 in 10.0 mi SW 15.0 mph 21.9 mph N/A   Mostly Cloudy
11:51 AM 82.0 °F 87.4 °F 73.0 °F 74% 30.02 in 10.0 mi WSW 12.7 mph - N/A   Mostly Cloudy
12:51 PM 84.9 °F 91.4 °F 73.0 °F 67% 30.01 in 10.0 mi WSW 10.4 mph - N/A   Mostly Cloudy
1:39 PM 84.2 °F 90.9 °F 73.4 °F 70% 30.01 in 10.0 mi WSW 9.2 mph - N/A   Mostly Cloudy
1:51 PM 88.0 °F 97.5 °F 75.0 °F 65% 29.98 in 10.0 mi SW 11.5 mph - N/A   Mostly Cloudy
2:51 PM 86.0 °F 92.2 °F 72.0 °F 63% 29.96 in 10.0 mi WSW 13.8 mph - N/A   Mostly Cloudy
3:51 PM 87.1 °F 93.6 °F 72.0 °F 61% 29.95 in 10.0 mi WSW 8.1 mph - N/A   Mostly Cloudy
4:51 PM 86.0 °F 92.2 °F 72.0 °F 63% 29.93 in 10.0 mi WSW 11.5 mph - N/A   Mostly Cloudy
5:51 PM 87.1 °F 93.6 °F 72.0 °F 61% 29.93 in 10.0 mi SW 12.7 mph - N/A   Mostly Cloudy
6:51 PM 82.9 °F 87.0 °F 70.0 °F 65% 29.93 in 10.0 mi SW 9.2 mph - N/A   Mostly Cloudy
7:51 PM 81.0 °F 84.9 °F 71.1 °F 72% 29.95 in 10.0 mi WSW 9.2 mph - N/A   Mostly Cloudy
8:51 PM 79.0 °F - 72.0 °F 79% 29.96 in 10.0 mi SW 6.9 mph - N/A   Mostly Cloudy
9:51 PM 80.1 °F 83.8 °F 72.0 °F 76% 29.97 in 10.0 mi SSW 5.8 mph - N/A   Mostly Cloudy
10:51 PM 79.0 °F - 71.1 °F 77% 29.99 in 10.0 mi South 8.1 mph - N/A   Mostly Cloudy
11:51 PM 78.1 °F - 71.1 °F 79% 29.99 in 10.0 mi SW 16.1 mph 21.9 mph N/A   Mostly Cloudy